Flag for U.S.A. Weather past 2 weeks in Pueblo, Colorado, U.S.A.

Now
33 °F

Partly sunny.


Feels Like: 33 °F
Forecast: 33 / 52 °F
Wind: No wind

Location: Pueblo Memorial Airport

Current Time: Jan 30, 2015 at 8:54:39 AM

Latest Report: Jan 30, 2015 at 7:53 AM


Visibility: 10 mi

Pressure: 30.27 "Hg

Humidity: 75%

Dew point: 26 °F

Location of PuebloLocation

Historic Weather in Pueblo — Graph

°F

Pueblo temperature yesterday

Maximum temperature yesterday: 49 °F (at 1:53 PM)
Minimum temperature yesterday: 35 °F (at 9:53 PM)
Average temperature yesterday: 42 °F

Past Weeks' High & Low Weather Summary

 TemperatureHumidityPressure
High72 °F (Jan 27, 2:53 PM)96% (Jan 21, 3:53 AM)30.57 "Hg (Jan 21, 3:53 AM)
Low-1 °F (Jan 22, 6:53 AM)6% (Jan 16, 3:53 PM)29.78 "Hg (Jan 16, 10:53 PM)
Average39 °F55%30.18 "Hg
* Reported Jan 15 7:53 AM — Jan 30 7:53 AM, Pueblo, Weather by CustomWeather, © 2014

Note: Actual official high and low records may vary slightly from our data, if they occured in-between our weather recording intervals... More about our weather records

Advertising

Pueblo weather history for previous 24 hours

 ConditionsComfort  
Time TempWeatherWind HumidityBarometerVisibility
7:53 AM
Jan 30
33 °FPartly sunny.No wind75%30.27 "Hg10 mi
6:53 AM31 °FOvercast.No wind79%30.28 "Hg10 mi
5:53 AM32 °FOvercast.No wind79%30.28 "Hg10 mi
4:53 AM28 °FClear.3 mph81%30.29 "Hg10 mi
3:53 AM29 °FClear.No wind79%30.29 "Hg10 mi
2:53 AM32 °FOvercast.3 mph73%30.30 "Hg10 mi
1:53 AM35 °FPassing clouds.No wind67%30.32 "Hg10 mi
12:53 AM37 °FPassing clouds.3 mph62%30.33 "Hg10 mi
11:53 PM
Jan 29
38 °FOvercast.7 mph58%30.36 "Hg10 mi
10:53 PM38 °FClear.9 mph58%30.38 "Hg10 mi
9:53 PM35 °FClear.7 mph64%30.41 "Hg10 mi
8:53 PM38 °FClear.No wind55%30.44 "Hg10 mi
7:53 PM39 °FClear.5 mph53%30.45 "Hg10 mi
6:53 PM41 °FClear.7 mph49%30.45 "Hg10 mi
5:53 PM42 °FClear.9 mph47%30.44 "Hg10 mi
4:53 PM46 °FSunny.10 mph38%30.42 "Hg10 mi
3:53 PM49 °FSunny.13 mph35%30.42 "Hg10 mi
2:53 PM49 °FSunny.9 mph33%30.42 "Hg10 mi
1:53 PM49 °FOvercast.10 mph32%30.43 "Hg10 mi
12:53 PM48 °FOvercast.9 mph32%30.47 "Hg10 mi
11:53 AM48 °FOvercast.6 mph33%30.50 "Hg10 mi
10:53 AM46 °FOvercast.5 mph34%30.52 "Hg10 mi
9:53 AM45 °FOvercast.No wind44%30.51 "Hg10 mi
8:53 AM42 °FOvercast.No wind57%30.49 "Hg10 mi
Weather by CustomWeather, © 2014

See weather overviewHow to use our weather pages